Time,TemperatureF,DewpointF,PressureIn,WindDirection,WindDirectionDegrees,WindSpeedMPH,WindSpeedGustMPH,Humidity,HourlyPrecipIn,Conditions,Clouds,dailyrainin,SoftwareType,DateUTC
2013-12-11 00:13:00,27.5,23.6,30.24,ESE,112,0.0,-999.0,85,-99.99,,,0.00,Acu-Link.com,2013-12-11 05:13:00,
2013-12-11 00:28:00,27.1,23.5,30.23,WNW,292,0.0,-999.0,86,-99.99,,,0.00,Acu-Link.com,2013-12-11 05:28:00,
2013-12-11 00:44:00,27.0,23.4,30.23,WNW,292,1.7,-999.0,86,-99.99,,,0.00,Acu-Link.com,2013-12-11 05:44:00,
2013-12-11 00:59:00,27.0,23.7,30.24,SSW,202,0.0,-999.0,87,-99.99,,,0.00,Acu-Link.com,2013-12-11 05:59:00,
2013-12-11 01:14:00,26.8,22.9,30.23,NNE,22,0.0,-999.0,85,-99.99,,,0.00,Acu-Link.com,2013-12-11 06:14:00,
2013-12-11 01:29:00,26.2,22.0,30.23,ESE,112,0.0,-999.0,84,-99.99,,,0.00,Acu-Link.com,2013-12-11 06:29:00,
2013-12-11 01:44:00,26.2,22.0,30.24,NNE,22,0.0,-999.0,84,-99.99,,,0.00,Acu-Link.com,2013-12-11 06:44:00,
2013-12-11 01:59:00,25.9,22.0,30.24,WSW,247,1.7,-999.0,85,-99.99,,,0.00,Acu-Link.com,2013-12-11 06:59:00,
2013-12-11 02:14:00,25.9,22.3,30.24,East,90,0.0,-999.0,86,-99.99,,,0.00,Acu-Link.com,2013-12-11 07:14:00,
2013-12-11 02:30:00,25.7,22.1,30.25,East,90,0.0,-999.0,86,-99.99,,,0.00,Acu-Link.com,2013-12-11 07:30:00,
2013-12-11 02:45:00,25.3,21.7,30.25,WNW,292,0.0,-999.0,86,-99.99,,,0.00,Acu-Link.com,2013-12-11 07:45:00,
2013-12-11 03:00:00,25.2,21.1,30.26,ESE,112,0.0,-999.0,84,-99.99,,,0.00,Acu-Link.com,2013-12-11 08:00:00,
2013-12-11 03:15:00,25.0,20.9,30.27,SSE,157,0.0,-999.0,84,-99.99,,,0.00,Acu-Link.com,2013-12-11 08:15:00,
2013-12-11 03:30:00,25.0,21.1,30.27,NNW,337,0.0,-999.0,85,-99.99,,,0.00,Acu-Link.com,2013-12-11 08:30:00,
2013-12-11 03:46:00,24.6,20.5,30.27,West,270,0.0,-999.0,84,-99.99,,,0.00,Acu-Link.com,2013-12-11 08:46:00,
2013-12-11 04:01:00,24.4,20.3,30.28,WNW,292,0.0,-999.0,84,-99.99,,,0.00,Acu-Link.com,2013-12-11 09:01:00,
2013-12-11 04:16:00,24.4,20.6,30.28,WNW,292,0.0,-999.0,85,-99.99,,,0.00,Acu-Link.com,2013-12-11 09:16:00,
2013-12-11 04:31:00,24.6,20.7,30.29,ESE,112,0.0,-999.0,85,-99.99,,,0.00,Acu-Link.com,2013-12-11 09:31:00,
2013-12-11 04:46:00,24.4,20.3,30.29,NW,315,0.0,-999.0,84,-99.99,,,0.00,Acu-Link.com,2013-12-11 09:46:00,
2013-12-11 05:01:00,24.1,20.0,30.29,NNE,22,0.0,-999.0,84,-99.99,,,0.00,Acu-Link.com,2013-12-11 10:01:00,
2013-12-11 05:16:00,24.1,20.0,30.29,NNE,22,0.0,-999.0,84,-99.99,,,0.00,Acu-Link.com,2013-12-11 10:16:00,
2013-12-11 05:31:00,23.9,19.8,30.30,NNE,22,0.0,-999.0,84,-99.99,,,0.00,Acu-Link.com,2013-12-11 10:31:00,
2013-12-11 05:46:00,24.1,20.5,30.31,NNE,22,0.0,-999.0,86,-99.99,,,0.00,Acu-Link.com,2013-12-11 10:46:00,
2013-12-11 06:02:00,24.1,20.5,30.31,NNE,22,0.0,-999.0,86,-99.99,,,0.00,Acu-Link.com,2013-12-11 11:02:00,
2013-12-11 06:17:00,23.5,19.4,30.32,NNE,22,0.0,-999.0,84,-99.99,,,0.00,Acu-Link.com,2013-12-11 11:17:00,
2013-12-11 06:32:00,23.5,19.7,30.32,NNE,22,0.0,-999.0,85,-99.99,,,0.00,Acu-Link.com,2013-12-11 11:32:00,
2013-12-11 06:47:00,23.2,19.1,30.32,NNE,22,0.0,-999.0,84,-99.99,,,0.00,Acu-Link.com,2013-12-11 11:47:00,
2013-12-11 07:02:00,23.0,18.3,30.33,NNE,22,0.0,-999.0,82,-99.99,,,0.00,Acu-Link.com,2013-12-11 12:02:00,
2013-12-11 07:17:00,23.0,18.9,30.33,NNE,22,0.0,-999.0,84,-99.99,,,0.00,Acu-Link.com,2013-12-11 12:17:00,
2013-12-11 07:32:00,23.0,19.2,30.33,NNE,22,0.0,-999.0,85,-99.99,,,0.00,Acu-Link.com,2013-12-11 12:32:00,
2013-12-11 07:47:00,22.6,18.2,30.34,NNE,22,0.0,-999.0,83,-99.99,,,0.00,Acu-Link.com,2013-12-11 12:47:00,
2013-12-11 08:02:00,23.0,18.6,30.34,NNE,22,0.0,-999.0,83,-99.99,,,0.00,Acu-Link.com,2013-12-11 13:02:00,
2013-12-11 08:18:00,23.5,19.4,30.35,NNE,22,0.0,-999.0,84,-99.99,,,0.00,Acu-Link.com,2013-12-11 13:18:00,
2013-12-11 08:33:00,24.3,20.5,30.35,NNE,22,0.0,-999.0,85,-99.99,,,0.00,Acu-Link.com,2013-12-11 13:33:00,
2013-12-11 08:48:00,25.3,21.7,30.35,NNE,22,0.0,-999.0,86,-99.99,,,0.00,Acu-Link.com,2013-12-11 13:48:00,
2013-12-11 09:03:00,26.1,22.8,30.36,NNE,22,0.0,-999.0,87,-99.99,,,0.00,Acu-Link.com,2013-12-11 14:03:00,
2013-12-11 09:18:00,28.4,25.3,30.36,NNE,22,0.0,-999.0,88,-99.99,,,0.00,Acu-Link.com,2013-12-11 14:18:00,
2013-12-11 09:33:00,29.7,26.6,30.36,NNE,22,0.0,-999.0,88,-99.99,,,0.00,Acu-Link.com,2013-12-11 14:33:00,
2013-12-11 09:48:00,31.1,28.2,30.37,NNE,22,0.0,-999.0,89,-99.99,,,0.00,Acu-Link.com,2013-12-11 14:48:00,
2013-12-11 10:03:00,32.9,30.0,30.37,WSW,247,0.0,-999.0,89,-99.99,,,0.00,Acu-Link.com,2013-12-11 15:03:00,
2013-12-11 10:18:00,34.7,26.3,30.37,West,270,1.7,-999.0,71,-99.99,,,0.00,Acu-Link.com,2013-12-11 15:18:00,
2013-12-11 10:34:00,36.5,26.6,30.36,West,270,2.7,-999.0,67,-99.99,,,0.00,Acu-Link.com,2013-12-11 15:34:00,
2013-12-11 10:49:00,38.5,24.2,30.36,West,270,2.2,-999.0,56,-99.99,,,0.00,Acu-Link.com,2013-12-11 15:49:00,
2013-12-11 11:04:00,40.3,23.2,30.35,SSE,157,0.0,-999.0,50,-99.99,,,0.00,Acu-Link.com,2013-12-11 16:04:00,
2013-12-11 11:19:00,41.5,23.3,30.34,South,180,0.0,-999.0,48,-99.99,,,0.00,Acu-Link.com,2013-12-11 16:19:00,
2013-12-11 11:34:00,43.0,22.6,30.34,SSE,157,1.7,-999.0,44,-99.99,,,0.00,Acu-Link.com,2013-12-11 16:34:00,
2013-12-11 11:49:00,44.2,22.6,30.33,SE,135,1.1,-999.0,42,-99.99,,,0.00,Acu-Link.com,2013-12-11 16:49:00,
2013-12-11 12:04:00,46.0,20.6,30.32,NW,315,1.1,-999.0,36,-99.99,,,0.00,Acu-Link.com,2013-12-11 17:04:00,
2013-12-11 12:19:00,47.7,20.0,30.31,NNE,22,1.7,-999.0,33,-99.99,,,0.00,Acu-Link.com,2013-12-11 17:19:00,
2013-12-11 12:34:00,49.1,22.6,30.30,ESE,112,1.7,-999.0,35,-99.99,,,0.00,Acu-Link.com,2013-12-11 17:34:00,
2013-12-11 12:49:00,50.2,22.2,30.29,SW,225,2.2,-999.0,33,-99.99,,,0.00,Acu-Link.com,2013-12-11 17:49:00,
2013-12-11 13:05:00,50.4,22.4,30.28,NNE,22,1.1,-999.0,33,-99.99,,,0.00,Acu-Link.com,2013-12-11 18:05:00,
2013-12-11 13:20:00,52.9,23.1,30.27,SE,135,1.7,-999.0,31,-99.99,,,0.00,Acu-Link.com,2013-12-11 18:20:00,
2013-12-11 13:35:00,50.9,22.1,30.26,WNW,292,1.1,-999.0,32,-99.99,,,0.00,Acu-Link.com,2013-12-11 18:35:00,
2013-12-11 13:50:00,51.8,22.9,30.26,WSW,247,0.0,-999.0,32,-99.99,,,0.00,Acu-Link.com,2013-12-11 18:50:00,
2013-12-11 14:05:00,52.2,22.5,30.25,SSE,157,2.2,-999.0,31,-99.99,,,0.00,Acu-Link.com,2013-12-11 19:05:00,
2013-12-11 14:20:00,53.4,22.8,30.24,West,270,2.7,-999.0,30,-99.99,,,0.00,Acu-Link.com,2013-12-11 19:20:00,
2013-12-11 14:36:00,52.2,20.9,30.24,SW,225,2.7,-999.0,29,-99.99,,,0.00,Acu-Link.com,2013-12-11 19:36:00,
2013-12-11 14:51:00,53.2,21.8,30.23,ESE,112,0.0,-999.0,29,-99.99,,,0.00,Acu-Link.com,2013-12-11 19:51:00,
2013-12-11 15:06:00,53.1,21.7,30.23,WNW,292,0.0,-999.0,29,-99.99,,,0.00,Acu-Link.com,2013-12-11 20:06:00,
2013-12-11 15:21:00,51.8,22.9,30.22,NW,315,0.0,-999.0,32,-99.99,,,0.00,Acu-Link.com,2013-12-11 20:21:00,
2013-12-11 15:36:00,50.9,21.4,30.22,South,180,1.7,-999.0,31,-99.99,,,0.00,Acu-Link.com,2013-12-11 20:36:00,
2013-12-11 15:51:00,50.2,24.3,30.22,South,180,0.0,-999.0,36,-99.99,,,0.00,Acu-Link.com,2013-12-11 20:51:00,
2013-12-11 16:06:00,49.5,23.7,30.22,West,270,0.0,-999.0,36,-99.99,,,0.00,Acu-Link.com,2013-12-11 21:06:00,
2013-12-11 16:22:00,48.9,23.8,30.21,West,270,0.0,-999.0,37,-99.99,,,0.00,Acu-Link.com,2013-12-11 21:22:00,
2013-12-11 16:37:00,47.8,24.7,30.22,West,270,1.7,-999.0,40,-99.99,,,0.00,Acu-Link.com,2013-12-11 21:37:00,
2013-12-11 16:52:00,46.9,23.9,30.22,West,270,0.0,-999.0,40,-99.99,,,0.00,Acu-Link.com,2013-12-11 21:52:00,
2013-12-11 17:07:00,45.7,24.5,30.22,West,270,0.0,-999.0,43,-99.99,,,0.00,Acu-Link.com,2013-12-11 22:07:00,
2013-12-11 17:22:00,44.4,23.9,30.22,West,270,0.0,-999.0,44,-99.99,,,0.00,Acu-Link.com,2013-12-11 22:22:00,
2013-12-11 17:37:00,43.0,25.2,30.22,SSE,157,0.0,-999.0,49,-99.99,,,0.00,Acu-Link.com,2013-12-11 22:37:00,
2013-12-11 17:52:00,41.5,26.1,30.22,ESE,112,0.0,-999.0,54,-99.99,,,0.00,Acu-Link.com,2013-12-11 22:52:00,
2013-12-11 18:07:00,40.3,27.1,30.21,North,0,0.0,-999.0,59,-99.99,,,0.00,Acu-Link.com,2013-12-11 23:07:00,
2013-12-11 18:22:00,39.2,27.3,30.22,ESE,112,0.0,-999.0,62,-99.99,,,0.00,Acu-Link.com,2013-12-11 23:22:00,
2013-12-11 18:38:00,37.8,27.5,30.22,SSW,202,0.0,-999.0,66,-99.99,,,0.00,Acu-Link.com,2013-12-11 23:38:00,
2013-12-11 18:53:00,36.7,27.2,30.21,NNE,22,0.0,-999.0,68,-99.99,,,0.00,Acu-Link.com,2013-12-11 23:53:00,
2013-12-11 19:08:00,35.8,27.3,30.22,NW,315,0.0,-999.0,71,-99.99,,,0.00,Acu-Link.com,2013-12-12 00:08:00,
2013-12-11 19:23:00,34.9,26.5,30.22,SSW,202,0.0,-999.0,71,-99.99,,,0.00,Acu-Link.com,2013-12-12 00:23:00,
2013-12-11 19:38:00,34.2,26.8,30.22,SSW,202,0.0,-999.0,74,-99.99,,,0.00,Acu-Link.com,2013-12-12 00:38:00,
2013-12-11 19:53:00,33.4,26.0,30.22,West,270,0.0,-999.0,74,-99.99,,,0.00,Acu-Link.com,2013-12-12 00:53:00,
2013-12-11 20:08:00,32.7,26.6,30.22,West,270,0.0,-999.0,78,-99.99,,,0.00,Acu-Link.com,2013-12-12 01:08:00,
2013-12-11 20:23:00,32.4,26.6,30.22,NNW,337,0.0,-999.0,79,-99.99,,,0.00,Acu-Link.com,2013-12-12 01:23:00,
2013-12-11 20:38:00,31.8,25.7,30.22,West,270,0.0,-999.0,78,-99.99,,,0.00,Acu-Link.com,2013-12-12 01:38:00,
2013-12-11 20:54:00,31.3,25.6,30.22,SSW,202,0.0,-999.0,79,-99.99,,,0.00,Acu-Link.com,2013-12-12 01:54:00,
2013-12-11 21:09:00,30.9,25.8,30.22,West,270,0.0,-999.0,81,-99.99,,,0.00,Acu-Link.com,2013-12-12 02:09:00,
2013-12-11 21:24:00,30.4,25.9,30.21,NW,315,0.0,-999.0,83,-99.99,,,0.00,Acu-Link.com,2013-12-12 02:24:00,
2013-12-11 21:39:00,30.2,25.7,30.21,NW,315,0.0,-999.0,83,-99.99,,,0.00,Acu-Link.com,2013-12-12 02:39:00,
2013-12-11 21:54:00,29.8,25.3,30.21,NW,315,0.0,-999.0,83,-99.99,,,0.00,Acu-Link.com,2013-12-12 02:54:00,
2013-12-11 22:09:00,29.5,25.0,30.21,NW,315,0.0,-999.0,83,-99.99,,,0.00,Acu-Link.com,2013-12-12 03:09:00,
2013-12-11 22:24:00,29.5,25.6,30.21,WNW,292,0.0,-999.0,85,-99.99,,,0.00,Acu-Link.com,2013-12-12 03:24:00,
2013-12-11 22:39:00,29.1,24.9,30.21,WNW,292,0.0,-999.0,84,-99.99,,,0.00,Acu-Link.com,2013-12-12 03:39:00,
2013-12-11 22:54:00,29.1,24.9,30.21,WNW,292,0.0,-999.0,84,-99.99,,,0.00,Acu-Link.com,2013-12-12 03:54:00,
2013-12-11 23:10:00,28.6,24.4,30.21,WNW,292,0.0,-999.0,84,-99.99,,,0.00,Acu-Link.com,2013-12-12 04:10:00,
2013-12-11 23:25:00,28.4,24.2,30.21,WNW,292,0.0,-999.0,84,-99.99,,,0.00,Acu-Link.com,2013-12-12 04:25:00,
2013-12-11 23:40:00,28.0,24.1,30.21,West,270,0.0,-999.0,85,-99.99,,,0.00,Acu-Link.com,2013-12-12 04:40:00,
2013-12-11 23:55:00,27.9,23.7,30.21,WSW,247,0.0,-999.0,84,-99.99,,,0.00,Acu-Link.com,2013-12-12 04:55:00,